Weather History for Ithaca, NY

Change the Weather History Date:

Wednesday, January 29, 2014

  Actual Average Record
Temperature  
Mean Temperature 2 °F -  
Max Temperature 16 °F 29 °F 51 °F (1989)
Min Temperature -13 °F 12 °F -16 °F (1963)
Degree Days  
Heating Degree Days 64    
Moisture  
Dew Point -10 °F    
Average Humidity 57    
Maximum Humidity 83    
Minimum Humidity 37    
Precipitation  
Precipitation 0.00 in - - ()
Sea Level Pressure  
Sea Level Pressure 30.17 in    
Wind  
Wind Speed 4 mph (WSW)    
Max Wind Speed 14 mph    
Max Gust Speed -    
Visibility 10 miles    
Events      
Averages and records for this station are not official NWS values.
T = Trace of Precipitation, MM = Missing Value Source: NWS Daily Summary

Daily Weather History Graph

Daily Weather History Graph

Search for Another Location

Airport:

Trip Planner

Search our weather history database for the weather conditions in past years. The results will help you decide how hot, cold, wet, or windy it might be!

Date:

Astronomy

Jan. 29, 2014 Rise Set
Actual Time 7:22 AM EST 5:15 PM EST
Civil Twilight 6:52 AM EST 5:45 PM EST
Nautical Twilight 6:18 AM EST 6:19 PM EST
Astronomical Twilight 5:45 AM EST 6:52 PM EST
Moon 5:57 AM EST (1/29) 4:12 PM EST (1/29)
Length of Visible Light 10h 53m
Length of Day
9h 53m
Waning Crescent, 2% of the Moon is Illuminated
Jan 29
Waning Crescent
Jan 30
New
Feb 6
First Quarter
Feb 14
Full
Feb 22
Last Quarter

Hourly Weather History & Observations

Time (EST) Temp. Windchill Dew Point Humidity Pressure Visibility Wind Dir Wind Speed Gust Speed Precip Events Conditions
12:56 AM -2.9 °F - -11.9 °F 65% 30.23 in 10.0 mi Calm Calm - N/A   Clear
1:56 AM -8.0 °F - -13.9 °F 75% 30.21 in 10.0 mi Calm Calm - N/A   Clear
2:56 AM -8.9 °F - -15.0 °F 75% 30.20 in 10.0 mi Calm Calm - N/A   Clear
3:56 AM -0.9 °F -12.7 °F -13.0 °F 57% 30.17 in 10.0 mi SW 5.8 mph - N/A   Clear
4:56 AM -2.9 °F -11.2 °F -13.9 °F 59% 30.16 in 10.0 mi South 3.5 mph - N/A   Clear
5:56 AM -9.9 °F - -17.0 °F 71% 30.17 in 10.0 mi Calm Calm - N/A   Clear
6:25 AM -13.0 °F - -18.4 °F 77% 30.07 in 10.0 mi Calm Calm - N/A   Clear
6:56 AM -2.9 °F -18.8 °F -15.0 °F 56% 30.15 in 10.0 mi SW 9.2 mph - N/A   Clear
7:56 AM -6.0 °F -18.6 °F -15.9 °F 62% 30.16 in 10.0 mi SE 5.8 mph - N/A   Clear
8:56 AM 2.1 °F -12.6 °F -13.9 °F 47% 30.14 in 10.0 mi South 9.2 mph - N/A   Clear
9:56 AM 6.1 °F -6.8 °F -13.0 °F 41% 30.15 in 10.0 mi WSW 8.1 mph - N/A   Clear
10:56 AM 8.1 °F -7.0 °F -10.8 °F 42% 30.14 in 10.0 mi West 11.5 mph - N/A   Clear
11:56 AM 10.0 °F -4.5 °F -8.0 °F 44% 30.12 in 10.0 mi WSW 11.5 mph - N/A   Clear
12:56 PM 12.0 °F -2.0 °F -6.0 °F 44% 30.10 in 10.0 mi WSW 11.5 mph - N/A   Clear
1:56 PM 14.0 °F -0.8 °F -4.9 °F 43% 30.09 in 10.0 mi WSW 13.8 mph - N/A   Clear
2:56 PM 15.1 °F 1.1 °F -4.9 °F 41% 30.09 in 10.0 mi SW 12.7 mph - N/A   Clear
3:56 PM 16.2 °F 4.7 °F -6.0 °F 37% 30.10 in 10.0 mi West 9.2 mph - N/A   Clear
4:56 PM 15.1 °F 2.5 °F -4.9 °F 41% 30.12 in 10.0 mi West 10.4 mph - N/A   Clear
5:56 PM 13.1 °F 0.9 °F -6.0 °F 42% 30.16 in 10.0 mi West 9.2 mph - N/A   Clear
6:56 PM 12.0 °F -0.4 °F -4.9 °F 47% 30.18 in 10.0 mi West 9.2 mph - N/A   Clear
7:56 PM 11.1 °F -0.6 °F -4.9 °F 49% 30.22 in 10.0 mi West 8.1 mph - N/A   Clear
8:56 PM 7.2 °F -1.5 °F -1.8 °F 67% 30.24 in 10.0 mi NNW 4.6 mph - N/A   Clear
9:56 PM 1.0 °F - -4.9 °F 76% 30.28 in 10.0 mi Calm Calm - N/A   Clear
10:56 PM -2.9 °F - -6.9 °F 83% 30.30 in 10.0 mi Calm Calm - N/A   Clear
11:56 PM -4.0 °F - -8.9 °F 80% 30.32 in 10.0 mi Calm Calm - N/A   Clear